Regional Weather Roundup
Issued by NWS Boston, MA

Current Version | Previous Version | Text Only | Print | Product List | Glossary Off
Versions: 1 2 3 4 5 6 7 8 9 10 11 12 13 14 15 16 17 18 19 20 21 22 23 24 25 26 27
000 ASUS41 KBOX 181610 RWRBOX REGIONAL WEATHER ROUNDUP NATIONAL WEATHER SERVICE TAUNTON MA 1200 PM EDT MON SEP 18 2017 NOTE: "FAIR" INDICATES FEW OR NO CLOUDS BELOW 12,000 FEET WITH NO SIGNIFICANT WEATHER AND/OR OBSTRUCTIONS TO VISIBILITY. MAZALL-181700- EASTERN MASSACHUSETTS CITY SKY/WX TMP DP RH WIND PRES REMARKS BOSTON CLOUDY 66 65 96 E9 30.19R BEVERLY CLOUDY 70 65 84 NE7 30.18R LAWRENCE CLOUDY 71 65 81 NE6 30.20S BEDFORD CLOUDY 71 64 78 N5 30.16F BLUE HILL N/A 66 63 90 NE8 30.18S NORWOOD CLOUDY 71 66 84 E7 30.17R MARSHFIELD FOG 66 66 100 NE7 30.18R VSB 3/4 PLYMOUTH CLOUDY 68 65 90 NE7 30.18S FOG TAUNTON CLOUDY 69 65 86 NE6 30.16S FOG NEW BEDFORD CLOUDY 70 66 87 NE8 30.15F $$ MAZALL-181700- CAPE COD AND THE ISLANDS CITY SKY/WX TMP DP RH WIND PRES REMARKS FALMOUTH CLOUDY 70 66 88 NE12 30.17S HYANNIS CLOUDY 71 67 87 E7 30.15S CHATHAM CLOUDY 67 67 100 NE9 30.18R FOG PROVINCETOWN CLOUDY 68 65 90 E10 30.19R NANTUCKET CLOUDY 69 68 96 NE12 30.15R FOG MARTHAS VNYRD CLOUDY 70 66 87 NE13 30.16R $$ MAZALL-181700- CENTRAL AND WESTERN MASSACHUSETTS CITY SKY/WX TMP DP RH WIND PRES REMARKS WORCESTER CLOUDY 65 61 87 NE7 30.19S FITCHBURG CLOUDY 71 63 75 E3 30.19S ORANGE PTSUNNY 72 64 76 NE3 30.17S SPRINGFIELD CLOUDY 66 66 100 CALM 30.16S WESTFIELD CLOUDY 68 66 93 CALM 30.16S NORTH ADAMS SUNNY 77 65 66 E8 30.14F PITTSFIELD SUNNY 76 62 62 E6 30.15F $$ RIZALL-181700- RHODE ISLAND CITY SKY/WX TMP DP RH WIND PRES REMARKS PROVIDENCE CLOUDY 73 67 81 NE8 30.16F NEWPORT CLOUDY 72 68 87 NE9 30.15F BLOCK ISLAND CLOUDY 70 66 88 NE9 30.16R WESTERLY PTSUNNY 74 67 78 NE7 30.15F $$ CTZALL-181700- CONNECTICUT CITY SKY/WX TMP DP RH WIND PRES REMARKS BRADLEY INTL CLOUDY 69 63 81 NE6 30.17S HARTFORD PTSUNNY 72 65 78 N8 30.15F BRIDGEPORT CLOUDY 73 64 73 NE12 30.14S DANBURY PTSUNNY 71 64 78 E8 30.16S GROTON CLOUDY 72 67 84 NE8 30.13F NEW HAVEN CLOUDY 75 64 68 E8 30.14S CHESTER CLOUDY N/A N/A N/A NE7 30.15F MERIDEN CLOUDY 72 63 73 CALM 30.15S WILLIMANTIC CLOUDY 72 65 78 N6 30.16F OXFORD CLOUDY 66 63 90 VRB5 30.17F $$ MEZ002-015-021-024-NHZ003-005-008-011-012-014-VTZ005-008-181700- NORTHERN NEW ENGLAND CITY SKY/WX TMP DP RH WIND PRES REMARKS PORTLAND ME CLOUDY 64 63 96 E7 30.20S FOG BANGOR ME CLOUDY 63 59 87 SW8 30.22S CONCORD NH CLOUDY 66 63 90 CALM 30.19S MANCHESTER NH CLOUDY 70 63 78 N5 30.17F NASHUA NH CLOUDY 71 64 78 NE6 30.19S PORTSMOUTH NH CLOUDY 67 67 100 E5 30.18S JAFFREY NH CLOUDY 70 64 81 CALM 30.19F KEENE NH PTSUNNY 79 66 64 CALM 30.16F BURLINGTON VT MOSUNNY 80 66 62 SW7 30.12F MT. WASHINGTON FOG 54 54 100 E3 N/A VSB 1/2 $$ NYZ052-076-181700- EASTERN NEW YORK CITY SKY/WX TMP DP RH WIND PRES REMARKS ALBANY MOSUNNY 76 65 68 S6 30.13F NEW YORK CITY CLOUDY 71 67 87 NE14 30.12S $$ ANZALL-181700- MARINE OBSERVATIONS STATION/POSITION TIME TEMP WIND PRES VSBY WAVE AIR SEA DIR/SP/G HT/PER (UTC) (F) (DEG/KT/KT) (MB) (MI) (FT/S) BOSTON BUOY 1550 65 65 50/ 8/ 8 1021.7R 2/15 BUZZARDS BAY 1500 67 30/ 13/ 14 1021.1F NANTUCKET SOUND 1550 64 68 60/ 12/ 14 1021.1R 2/14 MASS BAY-STELLWA 1504 65 65 50/ 6/ 8 1021.1S 2/11 ISLE OF SHOALS 1500 63 60/ 7/ 8 1021.9F S OF BLOCK IS NOT AVBL $$ ......................KEY......................... SKY/WX - SKY CONDITION/PRESENT WEATHER TMP - TEMPERATURE IN FAHRENHEIT DWPT - DEWPOINT IN FAHRENHEIT RH - RELATIVE HUMIDITY IN PERCENT WIND - DIRECTION AND SPEED IN MPH PRES - MEAN SEA LEVEL PRESSURE IN INCHES OF HG WCI - WIND CHILL INDEX VSB - VISIBILITY IN MILES HX - HEAT INDEX TC - TEMPERATURE IN CELSIUS VRB - VARIABLE WIND DIRECTION N/A - NOT AVAILABLE

USA.gov is the U.S. government's official web portal to all federal, state and local government web resources and services.